Time,TemperatureF,DewpointF,PressureIn,WindDirection,WindDirectionDegrees,WindSpeedMPH,WindSpeedGustMPH,Humidity,HourlyPrecipIn,Conditions,Clouds,dailyrainin,SoftwareType,DateUTC
2013-01-13 00:02:00,8.2,2.8,30.58,NW,308,2.0,6.0,78,0.00,,---,0.00,VWS V14.01,2013-01-13 06:02:00,
2013-01-13 00:07:00,8.1,2.7,30.58,NW,312,4.0,6.0,78,0.00,,---,0.00,VWS V14.01,2013-01-13 06:07:00,
2013-01-13 00:12:00,8.0,2.6,30.59,NW,313,5.0,5.0,78,0.00,,---,0.00,VWS V14.01,2013-01-13 06:12:00,
2013-01-13 00:17:00,7.9,2.5,30.59,WNW,294,6.0,7.0,78,0.00,,---,0.00,VWS V14.01,2013-01-13 06:17:00,
2013-01-13 00:22:00,7.8,2.4,30.59,NW,316,10.0,12.0,78,0.00,,---,0.00,VWS V14.01,2013-01-13 06:22:00,
2013-01-13 00:27:00,7.7,2.0,30.58,WNW,286,3.0,5.0,77,0.00,,---,0.00,VWS V14.01,2013-01-13 06:27:00,
2013-01-13 00:32:00,7.6,1.9,30.58,NNW,332,4.0,5.0,77,0.00,,---,0.00,VWS V14.01,2013-01-13 06:32:00,
2013-01-13 00:37:00,7.5,1.8,30.58,NW,321,5.0,6.0,77,0.00,,---,0.00,VWS V14.01,2013-01-13 06:37:00,
2013-01-13 00:42:00,7.4,1.7,30.58,NW,316,7.0,7.0,77,0.00,,---,0.00,VWS V14.01,2013-01-13 06:42:00,
2013-01-13 00:47:00,7.2,1.5,30.58,North,5,1.0,3.0,77,0.00,,---,0.00,VWS V14.01,2013-01-13 06:47:00,
2013-01-13 00:52:00,7.1,1.4,30.59,NW,319,1.0,2.0,77,0.00,,---,0.00,VWS V14.01,2013-01-13 06:52:00,
2013-01-13 00:57:00,7.0,1.3,30.59,NW,317,5.0,5.0,77,0.00,,---,0.00,VWS V14.01,2013-01-13 06:57:00,
2013-01-13 01:02:00,6.9,1.2,30.59,NW,305,3.0,3.0,77,0.00,,---,0.00,VWS V14.01,2013-01-13 07:02:00,
2013-01-13 01:07:00,6.8,1.1,30.58,NW,310,3.0,3.0,77,0.00,,---,0.00,VWS V14.01,2013-01-13 07:07:00,
2013-01-13 01:12:00,6.6,1.2,30.58,NW,309,4.0,5.0,78,0.00,,---,0.00,VWS V14.01,2013-01-13 07:12:00,
2013-01-13 01:17:00,6.5,1.1,30.58,WNW,300,2.0,2.0,78,0.00,,---,0.00,VWS V14.01,2013-01-13 07:17:00,
2013-01-13 01:22:00,6.4,1.0,30.60,WNW,293,0.0,2.0,78,0.00,,---,0.00,VWS V14.01,2013-01-13 07:22:00,
2013-01-13 01:27:00,6.4,1.3,30.60,WNW,294,2.0,2.0,79,0.00,,---,0.00,VWS V14.01,2013-01-13 07:27:00,
2013-01-13 01:32:00,6.3,1.2,30.60,WNW,294,1.0,2.0,79,0.00,,---,0.00,VWS V14.01,2013-01-13 07:32:00,
2013-01-13 01:37:00,6.3,1.2,30.60,WNW,286,2.0,3.0,79,0.00,,---,0.00,VWS V14.01,2013-01-13 07:37:00,
2013-01-13 01:42:00,6.3,1.2,30.59,NW,305,4.0,4.0,79,0.00,,---,0.00,VWS V14.01,2013-01-13 07:42:00,
2013-01-13 01:47:00,6.4,1.6,30.59,NW,317,5.0,5.0,80,0.00,,---,0.00,VWS V14.01,2013-01-13 07:47:00,
2013-01-13 01:52:00,6.6,1.8,30.58,WNW,302,4.0,4.0,80,0.00,,---,0.00,VWS V14.01,2013-01-13 07:52:00,
2013-01-13 01:57:00,6.7,1.9,30.58,WNW,301,5.0,6.0,80,0.00,,---,0.00,VWS V14.01,2013-01-13 07:57:00,
2013-01-13 02:02:00,6.7,1.9,30.58,NW,306,3.0,7.0,80,0.00,,---,0.00,VWS V14.01,2013-01-13 08:02:00,
2013-01-13 02:07:00,6.8,2.0,30.57,NW,304,4.0,6.0,80,0.00,,---,0.00,VWS V14.01,2013-01-13 08:07:00,
2013-01-13 02:12:00,6.9,2.0,30.57,NW,310,4.0,6.0,80,0.00,,---,0.00,VWS V14.01,2013-01-13 08:12:00,
2013-01-13 02:17:00,6.9,2.0,30.58,NW,313,2.0,4.0,80,0.00,,---,0.00,VWS V14.01,2013-01-13 08:17:00,
2013-01-13 02:22:00,6.9,2.0,30.58,WNW,300,3.0,4.0,80,0.00,,---,0.00,VWS V14.01,2013-01-13 08:22:00,
2013-01-13 02:27:00,6.8,2.0,30.58,WNW,291,3.0,5.0,80,0.00,,---,0.00,VWS V14.01,2013-01-13 08:27:00,
2013-01-13 02:32:00,6.8,2.0,30.58,NW,317,4.0,6.0,80,0.00,,---,0.00,VWS V14.01,2013-01-13 08:32:00,
2013-01-13 02:37:00,6.8,2.2,30.58,NW,306,4.0,5.0,81,0.00,,---,0.00,VWS V14.01,2013-01-13 08:37:00,
2013-01-13 02:42:00,6.9,2.3,30.59,WNW,296,6.0,6.0,81,0.00,,---,0.00,VWS V14.01,2013-01-13 08:42:00,
2013-01-13 02:47:00,7.1,2.5,30.59,West,281,5.0,7.0,81,0.00,,---,0.00,VWS V14.01,2013-01-13 08:47:00,
2013-01-13 02:52:00,7.3,2.7,30.59,NNW,333,3.0,7.0,81,0.00,,---,0.00,VWS V14.01,2013-01-13 08:52:00,
2013-01-13 02:57:00,7.6,3.0,30.59,NW,311,4.0,7.0,81,0.00,,---,0.00,VWS V14.01,2013-01-13 08:57:00,
2013-01-13 03:02:00,7.8,3.2,30.59,NW,307,4.0,8.0,81,0.00,,---,0.00,VWS V14.01,2013-01-13 09:02:00,
2013-01-13 03:07:00,7.9,3.3,30.60,WNW,302,5.0,9.0,81,0.00,,---,0.00,VWS V14.01,2013-01-13 09:07:00,
2013-01-13 03:12:00,8.2,3.8,30.60,WNW,286,6.0,11.0,82,0.00,,---,0.00,VWS V14.01,2013-01-13 09:12:00,
2013-01-13 03:17:00,8.2,3.6,30.60,NW,304,6.0,11.0,81,0.00,,---,0.00,VWS V14.01,2013-01-13 09:17:00,
2013-01-13 03:22:00,7.9,3.0,30.60,NW,312,10.0,10.0,80,0.00,,---,0.00,VWS V14.01,2013-01-13 09:22:00,
2013-01-13 03:27:00,7.6,2.5,30.61,WNW,300,5.0,8.0,79,0.00,,---,0.00,VWS V14.01,2013-01-13 09:27:00,
2013-01-13 03:32:00,7.3,2.2,30.60,WNW,295,6.0,7.0,79,0.00,,---,0.00,VWS V14.01,2013-01-13 09:32:00,
2013-01-13 03:37:00,7.0,1.6,30.60,WSW,250,2.0,9.0,78,0.00,,---,0.00,VWS V14.01,2013-01-13 09:37:00,
2013-01-13 03:42:00,6.8,1.4,30.60,West,281,5.0,6.0,78,0.00,,---,0.00,VWS V14.01,2013-01-13 09:42:00,
2013-01-13 03:47:00,6.6,1.5,30.60,NW,307,5.0,10.0,79,0.00,,---,0.00,VWS V14.01,2013-01-13 09:47:00,
2013-01-13 03:52:00,6.4,1.3,30.59,WNW,285,5.0,10.0,79,0.00,,---,0.00,VWS V14.01,2013-01-13 09:52:00,
2013-01-13 03:57:00,6.3,1.2,30.61,NW,319,3.0,8.0,79,0.00,,---,0.00,VWS V14.01,2013-01-13 09:57:00,
2013-01-13 04:02:00,6.2,1.1,30.60,WNW,302,3.0,9.0,79,0.00,,---,0.00,VWS V14.01,2013-01-13 10:02:00,
2013-01-13 04:07:00,6.2,1.1,30.60,WNW,302,4.0,6.0,79,0.00,,---,0.00,VWS V14.01,2013-01-13 10:07:00,
2013-01-13 04:12:00,6.1,1.0,30.60,WNW,289,4.0,7.0,79,0.00,,---,0.00,VWS V14.01,2013-01-13 10:12:00,
2013-01-13 04:17:00,6.0,0.9,30.59,NNW,331,3.0,7.0,79,0.00,,---,0.00,VWS V14.01,2013-01-13 10:17:00,
2013-01-13 04:22:00,6.0,1.2,30.59,WNW,296,4.0,7.0,80,0.00,,---,0.00,VWS V14.01,2013-01-13 10:22:00,
2013-01-13 04:27:00,6.0,1.2,30.59,NNW,342,6.0,7.0,80,0.00,,---,0.00,VWS V14.01,2013-01-13 10:27:00,
2013-01-13 04:32:00,5.9,0.8,30.59,NNW,331,3.0,5.0,79,0.00,,---,0.00,VWS V14.01,2013-01-13 10:32:00,
2013-01-13 04:37:00,5.9,0.8,30.58,NW,312,4.0,11.0,79,0.00,,---,0.00,VWS V14.01,2013-01-13 10:37:00,
2013-01-13 04:42:00,5.8,0.7,30.58,NW,305,4.0,8.0,79,0.00,,---,0.00,VWS V14.01,2013-01-13 10:42:00,
2013-01-13 04:47:00,5.8,0.7,30.58,WNW,301,6.0,7.0,79,0.00,,---,0.00,VWS V14.01,2013-01-13 10:47:00,
2013-01-13 04:51:00,5.8,0.7,30.58,NW,314,10.0,10.0,79,0.00,,---,0.00,VWS V14.01,2013-01-13 10:51:00,
2013-01-13 04:56:00,5.8,0.7,30.58,WNW,293,2.0,8.0,79,0.00,,---,0.00,VWS V14.01,2013-01-13 10:56:00,
2013-01-13 05:01:00,5.7,0.6,30.58,NW,313,5.0,6.0,79,0.00,,---,0.00,VWS V14.01,2013-01-13 11:01:00,
2013-01-13 05:06:00,5.6,0.5,30.60,NW,313,4.0,4.0,79,0.00,,---,0.00,VWS V14.01,2013-01-13 11:06:00,
2013-01-13 05:11:00,5.6,0.5,30.60,WNW,288,4.0,7.0,79,0.00,,---,0.00,VWS V14.01,2013-01-13 11:11:00,
2013-01-13 05:16:00,5.5,0.7,30.61,WNW,296,4.0,6.0,80,0.00,,---,0.00,VWS V14.01,2013-01-13 11:16:00,
2013-01-13 05:22:00,5.4,0.6,30.63,WNW,296,6.0,7.0,80,0.00,,---,0.00,VWS V14.01,2013-01-13 11:22:00,
2013-01-13 05:26:00,5.4,0.6,30.64,WNW,292,3.0,4.0,80,0.00,,---,0.00,VWS V14.01,2013-01-13 11:26:00,
2013-01-13 05:31:00,5.4,0.6,30.65,NW,321,4.0,5.0,80,0.00,,---,0.00,VWS V14.01,2013-01-13 11:31:00,
2013-01-13 05:36:00,5.4,0.6,30.65,NW,304,3.0,5.0,80,0.00,,---,0.00,VWS V14.01,2013-01-13 11:36:00,
2013-01-13 05:42:00,5.4,0.6,30.65,NNW,328,3.0,6.0,80,0.00,,---,0.00,VWS V14.01,2013-01-13 11:42:00,
2013-01-13 05:47:00,5.4,0.6,30.65,NW,310,2.0,5.0,80,0.00,,---,0.00,VWS V14.01,2013-01-13 11:47:00,
2013-01-13 05:52:00,5.4,0.6,30.66,NW,319,7.0,7.0,80,0.00,,---,0.00,VWS V14.01,2013-01-13 11:52:00,
2013-01-13 05:57:00,5.3,0.5,30.66,NW,304,2.0,4.0,80,0.00,,---,0.00,VWS V14.01,2013-01-13 11:57:00,
2013-01-13 06:02:00,5.3,0.5,30.66,NW,309,1.0,5.0,80,0.00,,---,0.00,VWS V14.01,2013-01-13 12:02:00,
2013-01-13 06:06:00,5.2,0.4,30.66,NW,310,4.0,4.0,80,0.00,,---,0.00,VWS V14.01,2013-01-13 12:06:00,
2013-01-13 06:11:00,5.1,0.3,30.67,WNW,293,1.0,3.0,80,0.00,,---,0.00,VWS V14.01,2013-01-13 12:11:00,
2013-01-13 06:16:00,5.1,0.3,30.67,NW,321,1.0,7.0,80,0.00,,---,0.00,VWS V14.01,2013-01-13 12:16:00,
2013-01-13 06:21:00,5.2,0.4,30.67,WNW,302,4.0,4.0,80,0.00,,---,0.00,VWS V14.01,2013-01-13 12:21:00,
2013-01-13 06:26:00,5.3,0.5,30.67,NW,304,2.0,5.0,80,0.00,,---,0.00,VWS V14.01,2013-01-13 12:26:00,
2013-01-13 06:31:00,5.4,0.6,30.67,West,281,4.0,6.0,80,0.00,,---,0.00,VWS V14.01,2013-01-13 12:31:00,
2013-01-13 06:36:00,5.6,0.8,30.66,WNW,286,3.0,5.0,80,0.00,,---,0.00,VWS V14.01,2013-01-13 12:36:00,
2013-01-13 06:41:00,5.7,0.9,30.66,WNW,290,2.0,5.0,80,0.00,,---,0.00,VWS V14.01,2013-01-13 12:41:00,
2013-01-13 06:46:00,5.8,1.0,30.66,NW,311,5.0,6.0,80,0.00,,---,0.00,VWS V14.01,2013-01-13 12:46:00,
2013-01-13 06:51:00,5.8,1.0,30.66,WNW,294,6.0,6.0,80,0.00,,---,0.00,VWS V14.01,2013-01-13 12:51:00,
2013-01-13 06:56:00,5.8,1.0,30.66,West,281,4.0,5.0,80,0.00,,---,0.00,VWS V14.01,2013-01-13 12:56:00,
2013-01-13 07:01:00,5.8,1.0,30.66,WNW,288,2.0,5.0,80,0.00,,---,0.00,VWS V14.01,2013-01-13 13:01:00,
2013-01-13 07:06:00,5.7,0.9,30.68,WNW,282,2.0,5.0,80,0.00,,---,0.00,VWS V14.01,2013-01-13 13:06:00,
2013-01-13 07:11:00,5.6,0.8,30.68,WNW,294,2.0,4.0,80,0.00,,---,0.00,VWS V14.01,2013-01-13 13:11:00,
2013-01-13 07:16:00,5.6,0.8,30.68,WNW,284,5.0,5.0,80,0.00,,---,0.00,VWS V14.01,2013-01-13 13:16:00,
2013-01-13 07:21:00,5.6,0.8,30.68,WNW,284,3.0,4.0,80,0.00,,---,0.00,VWS V14.01,2013-01-13 13:21:00,
2013-01-13 07:26:00,5.6,0.8,30.69,NW,313,3.0,4.0,80,0.00,,---,0.00,VWS V14.01,2013-01-13 13:26:00,
2013-01-13 07:31:00,5.6,0.8,30.69,WNW,284,2.0,3.0,80,0.00,,---,0.00,VWS V14.01,2013-01-13 13:31:00,
2013-01-13 07:36:00,5.7,0.9,30.70,WNW,289,2.0,4.0,80,0.00,,---,0.00,VWS V14.01,2013-01-13 13:36:00,
2013-01-13 07:41:00,5.8,1.0,30.70,WNW,286,2.0,2.0,80,0.00,,---,0.00,VWS V14.01,2013-01-13 13:41:00,
2013-01-13 07:46:00,5.9,1.1,30.70,WNW,283,2.0,3.0,80,0.00,,---,0.00,VWS V14.01,2013-01-13 13:46:00,
2013-01-13 07:51:00,6.0,1.2,30.70,WNW,297,2.0,2.0,80,0.00,,---,0.00,VWS V14.01,2013-01-13 13:51:00,
2013-01-13 07:56:00,6.1,1.3,30.70,West,277,4.0,4.0,80,0.00,,---,0.00,VWS V14.01,2013-01-13 13:56:00,
2013-01-13 08:01:00,6.2,1.4,30.71,NW,306,2.0,5.0,80,0.00,,---,0.00,VWS V14.01,2013-01-13 14:01:00,
2013-01-13 08:06:00,6.5,1.7,30.72,WSW,254,1.0,4.0,80,0.00,,---,0.00,VWS V14.01,2013-01-13 14:06:00,
2013-01-13 08:11:00,6.9,2.0,30.71,WNW,298,0.0,2.0,80,0.00,,---,0.00,VWS V14.01,2013-01-13 14:11:00,
2013-01-13 08:16:00,7.2,2.3,30.72,WNW,288,1.0,2.0,80,0.00,,---,0.00,VWS V14.01,2013-01-13 14:16:00,
2013-01-13 08:21:00,7.5,2.6,30.71,WNW,282,2.0,3.0,80,0.00,,---,0.00,VWS V14.01,2013-01-13 14:21:00,
2013-01-13 08:26:00,7.4,2.3,30.71,WNW,299,4.0,5.0,79,0.00,,---,0.00,VWS V14.01,2013-01-13 14:26:00,
2013-01-13 08:31:00,7.6,2.5,30.71,WNW,294,2.0,4.0,79,0.00,,---,0.00,VWS V14.01,2013-01-13 14:31:00,
2013-01-13 08:36:00,8.0,2.8,30.72,WNW,298,0.0,5.0,79,0.00,,---,0.00,VWS V14.01,2013-01-13 14:36:00,
2013-01-13 08:41:00,8.5,3.3,30.70,West,277,2.0,3.0,79,0.00,,---,0.00,VWS V14.01,2013-01-13 14:41:00,
2013-01-13 08:46:00,8.9,3.7,30.71,WNW,285,1.0,3.0,79,0.00,,---,0.00,VWS V14.01,2013-01-13 14:46:00,
2013-01-13 08:51:00,9.3,4.1,30.71,NW,311,4.0,4.0,79,0.00,,---,0.00,VWS V14.01,2013-01-13 14:51:00,
2013-01-13 08:56:00,9.6,4.1,30.71,NW,309,2.0,3.0,78,0.00,,---,0.00,VWS V14.01,2013-01-13 14:56:00,
2013-01-13 09:01:00,9.9,4.4,30.71,West,273,2.0,4.0,78,0.00,,---,0.00,VWS V14.01,2013-01-13 15:01:00,
2013-01-13 09:06:00,10.2,4.7,30.72,WNW,291,6.0,6.0,78,0.00,,---,0.00,VWS V14.01,2013-01-13 15:06:00,
2013-01-13 09:11:00,10.4,4.6,30.72,WNW,290,3.0,5.0,77,0.00,,---,0.00,VWS V14.01,2013-01-13 15:11:00,
2013-01-13 09:16:00,10.7,4.6,30.72,West,275,5.0,7.0,76,0.00,,---,0.00,VWS V14.01,2013-01-13 15:16:00,
2013-01-13 09:21:00,11.0,4.9,30.72,NNW,328,4.0,6.0,76,0.00,,---,0.00,VWS V14.01,2013-01-13 15:21:00,
2013-01-13 09:26:00,11.5,5.4,30.71,NW,315,5.0,7.0,76,0.00,,---,0.00,VWS V14.01,2013-01-13 15:26:00,
2013-01-13 09:31:00,11.8,5.4,30.71,WNW,295,4.0,7.0,75,0.00,,---,0.00,VWS V14.01,2013-01-13 15:31:00,
2013-01-13 09:36:00,12.1,5.4,30.72,WNW,299,4.0,6.0,74,0.00,,---,0.00,VWS V14.01,2013-01-13 15:36:00,
2013-01-13 09:41:00,12.3,5.3,30.72,WNW,301,2.0,9.0,73,0.00,,---,0.00,VWS V14.01,2013-01-13 15:41:00,
2013-01-13 09:46:00,12.6,5.3,30.71,WNW,288,4.0,7.0,72,0.00,,---,0.00,VWS V14.01,2013-01-13 15:46:00,
2013-01-13 09:51:00,12.8,5.2,30.70,West,281,4.0,4.0,71,0.00,,---,0.00,VWS V14.01,2013-01-13 15:51:00,
2013-01-13 09:56:00,13.0,5.1,30.70,NNW,336,2.0,9.0,70,0.00,,---,0.00,VWS V14.01,2013-01-13 15:56:00,
2013-01-13 10:01:00,13.0,4.8,30.71,North,360,3.0,7.0,69,0.00,,---,0.00,VWS V14.01,2013-01-13 16:01:00,
2013-01-13 10:06:00,13.2,4.6,30.72,NW,320,7.0,7.0,68,0.00,,---,0.00,VWS V14.01,2013-01-13 16:06:00,
2013-01-13 10:11:00,13.4,4.8,30.72,WNW,284,2.0,5.0,68,0.00,,---,0.00,VWS V14.01,2013-01-13 16:11:00,
2013-01-13 10:16:00,13.7,5.1,30.71,West,278,5.0,10.0,68,0.00,,---,0.00,VWS V14.01,2013-01-13 16:16:00,
2013-01-13 10:21:00,13.8,4.9,30.71,NW,304,7.0,9.0,67,0.00,,---,0.00,VWS V14.01,2013-01-13 16:21:00,
2013-01-13 10:26:00,13.9,5.0,30.71,WNW,292,2.0,3.0,67,0.00,,---,0.00,VWS V14.01,2013-01-13 16:26:00,
2013-01-13 10:31:00,14.1,5.2,30.71,WNW,288,4.0,7.0,67,0.00,,---,0.00,VWS V14.01,2013-01-13 16:31:00,
2013-01-13 10:36:00,14.1,5.2,30.71,WNW,302,7.0,7.0,67,0.00,,---,0.00,VWS V14.01,2013-01-13 16:36:00,
2013-01-13 10:41:00,14.4,5.5,30.71,West,274,9.0,9.0,67,0.00,,---,0.00,VWS V14.01,2013-01-13 16:41:00,
2013-01-13 10:46:00,14.5,5.2,30.70,WSW,248,2.0,5.0,66,0.00,,---,0.00,VWS V14.01,2013-01-13 16:46:00,
2013-01-13 10:51:00,14.3,5.0,30.70,West,274,2.0,10.0,66,0.00,,---,0.00,VWS V14.01,2013-01-13 16:51:00,
2013-01-13 10:56:00,14.5,5.6,30.70,WNW,291,5.0,10.0,67,0.00,,---,0.00,VWS V14.01,2013-01-13 16:56:00,
2013-01-13 11:01:00,14.5,4.9,30.70,NW,306,8.0,12.0,65,0.00,,---,0.00,VWS V14.01,2013-01-13 17:01:00,
2013-01-13 11:06:00,14.7,5.1,30.70,WNW,300,11.0,11.0,65,0.00,,---,0.00,VWS V14.01,2013-01-13 17:06:00,
2013-01-13 11:11:00,14.9,4.6,30.70,West,277,9.0,14.0,63,0.00,,---,0.00,VWS V14.01,2013-01-13 17:11:00,
2013-01-13 11:16:00,15.3,5.3,30.70,WNW,284,5.0,9.0,64,0.00,,---,0.00,VWS V14.01,2013-01-13 17:16:00,
2013-01-13 11:21:00,15.2,5.2,30.70,WNW,300,6.0,12.0,64,0.00,,---,0.00,VWS V14.01,2013-01-13 17:21:00,
2013-01-13 11:26:00,15.3,5.7,30.69,NW,316,11.0,11.0,65,0.00,,---,0.00,VWS V14.01,2013-01-13 17:26:00,
2013-01-13 11:31:00,15.4,5.8,30.69,WNW,288,5.0,9.0,65,0.00,,---,0.00,VWS V14.01,2013-01-13 17:31:00,
2013-01-13 11:36:00,15.4,5.4,30.69,NW,323,8.0,10.0,64,0.00,,---,0.00,VWS V14.01,2013-01-13 17:36:00,
2013-01-13 11:41:00,15.6,5.9,30.68,WNW,293,6.0,7.0,65,0.00,,---,0.00,VWS V14.01,2013-01-13 17:41:00,
2013-01-13 11:46:00,15.7,5.7,30.68,NW,312,10.0,10.0,64,0.00,,---,0.00,VWS V14.01,2013-01-13 17:46:00,
2013-01-13 11:51:00,15.9,5.9,30.68,WNW,294,3.0,6.0,64,0.00,,---,0.00,VWS V14.01,2013-01-13 17:51:00,
2013-01-13 11:56:00,15.8,4.8,30.68,NW,311,4.0,7.0,61,0.00,,---,0.00,VWS V14.01,2013-01-13 17:56:00,
2013-01-13 12:01:00,16.0,5.3,30.68,WNW,290,6.0,7.0,62,0.00,,---,0.00,VWS V14.01,2013-01-13 18:01:00,
2013-01-13 12:06:00,15.8,4.8,30.69,West,260,8.0,8.0,61,0.00,,---,0.00,VWS V14.01,2013-01-13 18:06:00,
2013-01-13 12:11:00,16.1,5.4,30.69,NW,309,5.0,11.0,62,0.00,,---,0.00,VWS V14.01,2013-01-13 18:11:00,
2013-01-13 12:16:00,16.3,5.6,30.69,WNW,286,6.0,7.0,62,0.00,,---,0.00,VWS V14.01,2013-01-13 18:16:00,
2013-01-13 12:21:00,16.5,5.8,30.69,WNW,300,6.0,8.0,62,0.00,,---,0.00,VWS V14.01,2013-01-13 18:21:00,
2013-01-13 12:26:00,16.4,5.7,30.68,NW,304,5.0,6.0,62,0.00,,---,0.00,VWS V14.01,2013-01-13 18:26:00,
2013-01-13 12:31:00,16.6,6.2,30.67,WNW,302,9.0,10.0,63,0.00,,---,0.00,VWS V14.01,2013-01-13 18:31:00,
2013-01-13 12:36:00,16.9,6.2,30.67,West,278,9.0,13.0,62,0.00,,---,0.00,VWS V14.01,2013-01-13 18:36:00,
2013-01-13 12:41:00,16.9,6.2,30.67,West,268,4.0,11.0,62,0.00,,---,0.00,VWS V14.01,2013-01-13 18:41:00,
2013-01-13 12:46:00,17.0,6.2,30.67,West,279,6.0,9.0,62,0.00,,---,0.00,VWS V14.01,2013-01-13 18:46:00,
2013-01-13 12:51:00,17.1,6.3,30.67,WSW,254,3.0,9.0,62,0.00,,---,0.00,VWS V14.01,2013-01-13 18:51:00,
2013-01-13 12:56:00,17.3,6.5,30.67,WNW,292,3.0,6.0,62,0.00,,---,0.00,VWS V14.01,2013-01-13 18:56:00,
2013-01-13 13:01:00,17.4,6.6,30.66,West,281,6.0,9.0,62,0.00,,---,0.00,VWS V14.01,2013-01-13 19:01:00,
2013-01-13 13:06:00,17.6,6.4,30.66,West,279,7.0,11.0,61,0.00,,---,0.00,VWS V14.01,2013-01-13 19:06:00,
2013-01-13 13:11:00,17.5,6.0,30.66,West,269,6.0,6.0,60,0.00,,---,0.00,VWS V14.01,2013-01-13 19:11:00,
2013-01-13 13:16:00,17.7,6.9,30.66,West,273,6.0,9.0,62,0.00,,---,0.00,VWS V14.01,2013-01-13 19:16:00,
2013-01-13 13:21:00,17.8,6.3,30.66,NW,325,5.0,5.0,60,0.00,,---,0.00,VWS V14.01,2013-01-13 19:21:00,
2013-01-13 13:26:00,17.8,6.3,30.66,West,279,6.0,11.0,60,0.00,,---,0.00,VWS V14.01,2013-01-13 19:26:00,
2013-01-13 13:31:00,17.9,6.0,30.66,West,277,6.0,7.0,59,0.00,,---,0.00,VWS V14.01,2013-01-13 19:31:00,
2013-01-13 13:36:00,17.9,6.4,30.66,WNW,287,5.0,7.0,60,0.00,,---,0.00,VWS V14.01,2013-01-13 19:36:00,
2013-01-13 13:41:00,18.4,7.2,30.66,WNW,298,7.0,9.0,61,0.00,,---,0.00,VWS V14.01,2013-01-13 19:41:00,
2013-01-13 13:46:00,18.6,6.7,30.65,WNW,282,2.0,6.0,59,0.00,,---,0.00,VWS V14.01,2013-01-13 19:46:00,
2013-01-13 13:51:00,18.8,6.9,30.65,NW,308,4.0,5.0,59,0.00,,---,0.00,VWS V14.01,2013-01-13 19:51:00,
2013-01-13 13:56:00,18.8,6.9,30.65,WSW,252,3.0,6.0,59,0.00,,---,0.00,VWS V14.01,2013-01-13 19:56:00,
2013-01-13 14:01:00,18.6,5.9,30.65,West,280,4.0,6.0,57,0.00,,---,0.00,VWS V14.01,2013-01-13 20:01:00,
2013-01-13 14:06:00,18.8,6.9,30.65,NW,313,9.0,9.0,59,0.00,,---,0.00,VWS V14.01,2013-01-13 20:06:00,
2013-01-13 14:11:00,19.1,7.1,30.65,WNW,296,3.0,4.0,59,0.00,,---,0.00,VWS V14.01,2013-01-13 20:11:00,
2013-01-13 14:16:00,19.0,7.1,30.65,WNW,288,4.0,7.0,59,0.00,,---,0.00,VWS V14.01,2013-01-13 20:16:00,
2013-01-13 14:21:00,18.9,6.6,30.65,WNW,283,3.0,4.0,58,0.00,,---,0.00,VWS V14.01,2013-01-13 20:21:00,
2013-01-13 14:26:00,19.0,6.7,30.65,West,274,3.0,3.0,58,0.00,,---,0.00,VWS V14.01,2013-01-13 20:26:00,
2013-01-13 14:31:00,19.1,6.8,30.66,WNW,299,5.0,9.0,58,0.00,,---,0.00,VWS V14.01,2013-01-13 20:31:00,
2013-01-13 14:36:00,19.0,6.7,30.66,WNW,291,4.0,4.0,58,0.00,,---,0.00,VWS V14.01,2013-01-13 20:36:00,
2013-01-13 14:41:00,19.2,7.2,30.66,WNW,298,5.0,9.0,59,0.00,,---,0.00,VWS V14.01,2013-01-13 20:41:00,
2013-01-13 14:46:00,19.4,7.4,30.66,NW,324,1.0,4.0,59,0.00,,---,0.00,VWS V14.01,2013-01-13 20:46:00,
2013-01-13 14:51:00,19.5,7.1,30.65,WNW,292,4.0,6.0,58,0.00,,---,0.00,VWS V14.01,2013-01-13 20:51:00,
2013-01-13 14:56:00,19.6,7.2,30.65,NW,318,7.0,7.0,58,0.00,,---,0.00,VWS V14.01,2013-01-13 20:56:00,
2013-01-13 15:01:00,19.4,6.7,30.67,WNW,302,6.0,6.0,57,0.00,,---,0.00,VWS V14.01,2013-01-13 21:01:00,
2013-01-13 15:06:00,19.4,7.1,30.68,WNW,283,6.0,7.0,58,0.00,,---,0.00,VWS V14.01,2013-01-13 21:06:00,
2013-01-13 15:11:00,19.3,6.9,30.68,WNW,294,3.0,4.0,58,0.00,,---,0.00,VWS V14.01,2013-01-13 21:11:00,
2013-01-13 15:16:00,19.3,6.9,30.69,West,273,4.0,7.0,58,0.00,,---,0.00,VWS V14.01,2013-01-13 21:16:00,
2013-01-13 15:21:00,19.2,6.9,30.69,NW,319,2.0,5.0,58,0.00,,---,0.00,VWS V14.01,2013-01-13 21:21:00,
2013-01-13 15:26:00,19.3,6.9,30.70,WNW,288,2.0,4.0,58,0.00,,---,0.00,VWS V14.01,2013-01-13 21:26:00,
2013-01-13 15:31:00,19.3,6.9,30.69,WNW,289,6.0,7.0,58,0.00,,---,0.00,VWS V14.01,2013-01-13 21:31:00,
2013-01-13 15:36:00,19.0,6.7,30.69,WNW,285,2.0,3.0,58,0.00,,---,0.00,VWS V14.01,2013-01-13 21:36:00,
2013-01-13 15:41:00,19.1,7.1,30.70,West,278,4.0,4.0,59,0.00,,---,0.00,VWS V14.01,2013-01-13 21:41:00,
2013-01-13 15:46:00,19.3,7.7,30.70,WNW,283,6.0,6.0,60,0.00,,---,0.00,VWS V14.01,2013-01-13 21:46:00,
2013-01-13 15:51:00,19.3,7.7,30.71,WSW,254,2.0,5.0,60,0.00,,---,0.00,VWS V14.01,2013-01-13 21:51:00,
2013-01-13 15:56:00,19.1,7.1,30.71,WNW,294,3.0,5.0,59,0.00,,---,0.00,VWS V14.01,2013-01-13 21:56:00,
2013-01-13 16:01:00,19.0,7.1,30.71,WNW,289,5.0,5.0,59,0.00,,---,0.00,VWS V14.01,2013-01-13 22:01:00,
2013-01-13 16:06:00,18.6,6.7,30.71,West,273,3.0,3.0,59,0.00,,---,0.00,VWS V14.01,2013-01-13 22:06:00,
2013-01-13 16:11:00,18.4,6.8,30.71,WSW,240,3.0,4.0,60,0.00,,---,0.00,VWS V14.01,2013-01-13 22:11:00,
2013-01-13 16:16:00,18.4,6.8,30.71,West,269,2.0,3.0,60,0.00,,---,0.00,VWS V14.01,2013-01-13 22:16:00,
2013-01-13 16:21:00,18.4,6.8,30.72,WSW,240,3.0,3.0,60,0.00,,---,0.00,VWS V14.01,2013-01-13 22:21:00,
2013-01-13 16:26:00,18.4,6.8,30.72,WNW,288,2.0,2.0,60,0.00,,---,0.00,VWS V14.01,2013-01-13 22:26:00,
2013-01-13 16:31:00,18.1,6.6,30.71,West,277,2.0,3.0,60,0.00,,---,0.00,VWS V14.01,2013-01-13 22:31:00,
2013-01-13 16:36:00,17.9,6.4,30.71,West,265,2.0,4.0,60,0.00,,---,0.00,VWS V14.01,2013-01-13 22:36:00,
2013-01-13 16:41:00,17.6,6.4,30.72,WSW,244,2.0,2.0,61,0.00,,---,0.00,VWS V14.01,2013-01-13 22:41:00,
2013-01-13 16:46:00,17.5,6.4,30.72,West,274,2.0,3.0,61,0.00,,---,0.00,VWS V14.01,2013-01-13 22:46:00,
2013-01-13 16:51:00,17.3,6.5,30.73,West,277,4.0,4.0,62,0.00,,---,0.00,VWS V14.01,2013-01-13 22:51:00,
2013-01-13 16:56:00,17.1,6.3,30.73,WNW,293,3.0,3.0,62,0.00,,---,0.00,VWS V14.01,2013-01-13 22:56:00,
2013-01-13 17:01:00,16.9,6.2,30.73,WNW,284,2.0,2.0,62,0.00,,---,0.00,VWS V14.01,2013-01-13 23:01:00,
2013-01-13 17:06:00,16.7,6.3,30.74,West,280,1.0,2.0,63,0.00,,---,0.00,VWS V14.01,2013-01-13 23:06:00,
2013-01-13 17:11:00,16.5,6.1,30.74,West,276,3.0,3.0,63,0.00,,---,0.00,VWS V14.01,2013-01-13 23:11:00,
2013-01-13 17:16:00,16.3,6.3,30.75,WNW,296,3.0,3.0,64,0.00,,---,0.00,VWS V14.01,2013-01-13 23:16:00,
2013-01-13 17:21:00,16.0,6.0,30.75,WNW,300,1.0,3.0,64,0.00,,---,0.00,VWS V14.01,2013-01-13 23:21:00,
2013-01-13 17:26:00,15.7,5.7,30.75,WNW,300,2.0,3.0,64,0.00,,---,0.00,VWS V14.01,2013-01-13 23:26:00,
2013-01-13 17:31:00,15.3,5.7,30.75,WNW,300,1.0,2.0,65,0.00,,---,0.00,VWS V14.01,2013-01-13 23:31:00,
2013-01-13 17:36:00,15.0,5.4,30.75,WNW,300,1.0,3.0,65,0.00,,---,0.00,VWS V14.01,2013-01-13 23:36:00,
2013-01-13 17:41:00,14.6,5.3,30.75,WNW,300,2.0,2.0,66,0.00,,---,0.00,VWS V14.01,2013-01-13 23:41:00,
2013-01-13 17:46:00,14.4,5.5,30.76,WNW,300,1.0,2.0,67,0.00,,---,0.00,VWS V14.01,2013-01-13 23:46:00,
2013-01-13 17:51:00,14.2,5.3,30.77,WNW,300,0.0,0.0,67,0.00,,---,0.00,VWS V14.01,2013-01-13 23:51:00,
2013-01-13 17:56:00,13.9,5.0,30.77,WNW,300,0.0,0.0,67,0.00,,---,0.00,VWS V14.01,2013-01-13 23:56:00,
2013-01-13 18:01:00,13.6,5.0,30.77,WNW,300,0.0,0.0,68,0.00,,---,0.00,VWS V14.01,2013-01-14 00:01:00,
2013-01-13 18:06:00,13.4,4.8,30.77,WNW,300,0.0,1.0,68,0.00,,---,0.00,VWS V14.01,2013-01-14 00:06:00,
2013-01-13 18:11:00,13.1,4.5,30.77,WNW,300,0.0,0.0,68,0.00,,---,0.00,VWS V14.01,2013-01-14 00:11:00,
2013-01-13 18:16:00,13.0,4.8,30.77,WNW,300,0.0,0.0,69,0.00,,---,0.00,VWS V14.01,2013-01-14 00:16:00,
2013-01-13 18:21:00,12.8,4.6,30.77,WNW,300,0.0,1.0,69,0.00,,---,0.00,VWS V14.01,2013-01-14 00:21:00,
2013-01-13 18:26:00,12.8,4.6,30.78,WNW,300,0.0,0.0,69,0.00,,---,0.00,VWS V14.01,2013-01-14 00:26:00,
2013-01-13 18:31:00,12.7,4.8,30.78,WNW,300,0.0,0.0,70,0.00,,---,0.00,VWS V14.01,2013-01-14 00:31:00,
2013-01-13 18:36:00,12.5,4.6,30.78,WNW,300,0.0,0.0,70,0.00,,---,0.00,VWS V14.01,2013-01-14 00:36:00,
2013-01-13 18:41:00,12.4,4.5,30.78,WNW,300,0.0,0.0,70,0.00,,---,0.00,VWS V14.01,2013-01-14 00:41:00,
2013-01-13 18:46:00,12.3,4.4,30.77,WNW,300,1.0,2.0,70,0.00,,---,0.00,VWS V14.01,2013-01-14 00:46:00,
2013-01-13 18:51:00,12.2,4.3,30.77,WNW,300,1.0,1.0,70,0.00,,---,0.00,VWS V14.01,2013-01-14 00:51:00,
2013-01-13 18:56:00,11.9,4.0,30.77,WNW,300,1.0,1.0,70,0.00,,---,0.00,VWS V14.01,2013-01-14 00:56:00,
2013-01-13 19:01:00,11.7,4.1,30.77,WNW,300,1.0,1.0,71,0.00,,---,0.00,VWS V14.01,2013-01-14 01:01:00,
2013-01-13 19:06:00,11.6,4.0,30.77,WNW,300,2.0,2.0,71,0.00,,---,0.00,VWS V14.01,2013-01-14 01:06:00,
2013-01-13 19:11:00,11.5,4.2,30.77,WNW,300,1.0,2.0,72,0.00,,---,0.00,VWS V14.01,2013-01-14 01:11:00,
2013-01-13 19:16:00,11.3,4.1,30.79,WNW,300,0.0,0.0,72,0.00,,---,0.00,VWS V14.01,2013-01-14 01:16:00,
2013-01-13 19:21:00,11.1,3.8,30.79,WNW,300,0.0,0.0,72,0.00,,---,0.00,VWS V14.01,2013-01-14 01:21:00,
2013-01-13 19:26:00,10.8,3.9,30.80,WNW,300,0.0,0.0,73,0.00,,---,0.00,VWS V14.01,2013-01-14 01:26:00,
2013-01-13 19:31:00,10.6,3.7,30.80,WNW,300,0.0,0.0,73,0.00,,---,0.00,VWS V14.01,2013-01-14 01:31:00,
2013-01-13 19:36:00,10.4,3.8,30.80,WNW,300,0.0,0.0,74,0.00,,---,0.00,VWS V14.01,2013-01-14 01:36:00,
2013-01-13 19:41:00,10.3,3.7,30.79,WNW,300,0.0,0.0,74,0.00,,---,0.00,VWS V14.01,2013-01-14 01:41:00,
2013-01-13 19:46:00,10.2,3.6,30.80,WNW,300,1.0,1.0,74,0.00,,---,0.00,VWS V14.01,2013-01-14 01:46:00,
2013-01-13 19:51:00,10.2,3.6,30.80,WNW,300,0.0,0.0,74,0.00,,---,0.00,VWS V14.01,2013-01-14 01:51:00,
2013-01-13 19:56:00,10.1,3.5,30.80,WNW,300,0.0,0.0,74,0.00,,---,0.00,VWS V14.01,2013-01-14 01:56:00,
2013-01-13 20:01:00,10.1,3.5,30.80,WNW,300,0.0,0.0,74,0.00,,---,0.00,VWS V14.01,2013-01-14 02:01:00,
2013-01-13 20:06:00,9.9,3.3,30.78,WNW,300,0.0,0.0,74,0.00,,---,0.00,VWS V14.01,2013-01-14 02:06:00,
2013-01-13 20:11:00,9.8,3.2,30.78,WNW,300,0.0,1.0,74,0.00,,---,0.00,VWS V14.01,2013-01-14 02:11:00,
2013-01-13 20:16:00,9.5,3.2,30.79,WNW,300,1.0,1.0,75,0.00,,---,0.00,VWS V14.01,2013-01-14 02:16:00,
2013-01-13 20:21:00,9.4,3.1,30.80,WNW,300,0.0,1.0,75,0.00,,---,0.00,VWS V14.01,2013-01-14 02:21:00,
2013-01-13 20:26:00,9.2,2.9,30.80,WNW,300,0.0,1.0,75,0.00,,---,0.00,VWS V14.01,2013-01-14 02:26:00,
2013-01-13 20:31:00,9.2,2.9,30.80,WNW,300,0.0,0.0,75,0.00,,---,0.00,VWS V14.01,2013-01-14 02:31:00,
2013-01-13 20:36:00,9.1,3.1,30.80,WNW,300,0.0,0.0,76,0.00,,---,0.00,VWS V14.01,2013-01-14 02:36:00,
2013-01-13 20:41:00,9.0,3.0,30.79,WNW,300,0.0,1.0,76,0.00,,---,0.00,VWS V14.01,2013-01-14 02:41:00,
2013-01-13 20:46:00,8.9,2.9,30.80,WNW,300,1.0,1.0,76,0.00,,---,0.00,VWS V14.01,2013-01-14 02:46:00,
2013-01-13 20:51:00,9.0,3.3,30.80,WNW,300,0.0,1.0,77,0.00,,---,0.00,VWS V14.01,2013-01-14 02:51:00,
2013-01-13 20:56:00,8.9,3.2,30.80,WNW,300,1.0,1.0,77,0.00,,---,0.00,VWS V14.01,2013-01-14 02:56:00,
2013-01-13 21:01:00,8.9,3.2,30.80,WNW,300,0.0,1.0,77,0.00,,---,0.00,VWS V14.01,2013-01-14 03:01:00,
2013-01-13 21:06:00,8.8,3.1,30.79,WNW,300,1.0,2.0,77,0.00,,---,0.00,VWS V14.01,2013-01-14 03:06:00,
2013-01-13 21:11:00,8.9,3.2,30.77,WNW,300,0.0,0.0,77,0.00,,---,0.00,VWS V14.01,2013-01-14 03:11:00,
2013-01-13 21:16:00,9.0,3.3,30.77,WNW,300,0.0,0.0,77,0.00,,---,0.00,VWS V14.01,2013-01-14 03:16:00,
2013-01-13 21:21:00,9.0,3.3,30.77,WNW,300,0.0,0.0,77,0.00,,---,0.00,VWS V14.01,2013-01-14 03:21:00,
2013-01-13 21:26:00,9.1,3.1,30.77,WNW,300,1.0,1.0,76,0.00,,---,0.00,VWS V14.01,2013-01-14 03:26:00,
2013-01-13 21:31:00,9.2,3.2,30.78,WNW,300,2.0,2.0,76,0.00,,---,0.00,VWS V14.01,2013-01-14 03:31:00,
2013-01-13 21:36:00,9.2,3.2,30.78,WNW,300,0.0,1.0,76,0.00,,---,0.00,VWS V14.01,2013-01-14 03:36:00,
2013-01-13 21:41:00,9.1,3.1,30.78,WNW,300,0.0,1.0,76,0.00,,---,0.00,VWS V14.01,2013-01-14 03:41:00,
2013-01-13 21:46:00,9.2,3.2,30.78,WNW,300,0.0,0.0,76,0.00,,---,0.00,VWS V14.01,2013-01-14 03:46:00,
2013-01-13 21:51:00,9.1,3.1,30.79,SSW,211,5.0,5.0,76,0.00,,---,0.00,VWS V14.01,2013-01-14 03:51:00,
2013-01-13 21:56:00,8.2,1.9,30.80,SW,230,4.0,5.0,75,0.00,,---,0.00,VWS V14.01,2013-01-14 03:56:00,
2013-01-13 22:01:00,7.5,1.5,30.80,SSW,211,0.0,2.0,76,0.00,,---,0.00,VWS V14.01,2013-01-14 04:01:00,
2013-01-13 22:05:00,7.3,1.6,30.79,SSW,211,0.0,0.0,77,0.00,,---,0.00,VWS V14.01,2013-01-14 04:05:00,
2013-01-13 22:10:00,7.2,1.5,30.79,SSW,211,1.0,2.0,77,0.00,,---,0.00,VWS V14.01,2013-01-14 04:10:00,
2013-01-13 22:15:00,7.2,1.8,30.79,SSW,211,1.0,2.0,78,0.00,,---,0.00,VWS V14.01,2013-01-14 04:15:00,
2013-01-13 22:20:00,7.1,1.7,30.80,SSW,213,4.0,5.0,78,0.00,,---,0.00,VWS V14.01,2013-01-14 04:20:00,
2013-01-13 22:25:00,6.9,1.5,30.80,SW,215,4.0,5.0,78,0.00,,---,0.00,VWS V14.01,2013-01-14 04:25:00,
2013-01-13 22:30:00,6.8,1.4,30.80,SW,215,4.0,4.0,78,0.00,,---,0.00,VWS V14.01,2013-01-14 04:30:00,
2013-01-13 22:35:00,6.8,1.4,30.80,SW,218,1.0,4.0,78,0.00,,---,0.00,VWS V14.01,2013-01-14 04:35:00,
2013-01-13 22:40:00,6.8,1.4,30.79,SW,218,0.0,0.0,78,0.00,,---,0.00,VWS V14.01,2013-01-14 04:40:00,
2013-01-13 22:45:00,6.8,1.7,30.79,SW,218,0.0,0.0,79,0.00,,---,0.00,VWS V14.01,2013-01-14 04:45:00,
2013-01-13 22:50:00,6.8,1.7,30.79,SW,218,0.0,0.0,79,0.00,,---,0.00,VWS V14.01,2013-01-14 04:50:00,
2013-01-13 22:55:00,6.9,1.8,30.80,SW,218,0.0,0.0,79,0.00,,---,0.00,VWS V14.01,2013-01-14 04:55:00,
2013-01-13 23:00:00,6.9,1.8,30.80,SW,218,0.0,0.0,79,0.00,,---,0.00,VWS V14.01,2013-01-14 05:00:00,
2013-01-13 23:01:00,6.9,1.8,30.80,SW,218,0.0,0.0,79,0.00,,---,0.00,VWS V14.01,2013-01-14 05:01:00,
2013-01-13 23:03:00,7.0,1.9,30.80,SW,218,0.0,0.0,79,0.00,,---,0.00,VWS V14.01,2013-01-14 05:03:00,
2013-01-13 23:08:00,7.0,1.9,30.80,SW,218,0.0,0.0,79,0.00,,---,0.00,VWS V14.01,2013-01-14 05:08:00,
2013-01-13 23:13:00,6.9,1.8,30.80,SW,218,0.0,0.0,79,0.00,,---,0.00,VWS V14.01,2013-01-14 05:13:00,
2013-01-13 23:18:00,7.0,1.9,30.80,SW,218,2.0,2.0,79,0.00,,---,0.00,VWS V14.01,2013-01-14 05:18:00,
2013-01-13 23:23:00,7.0,1.9,30.80,SW,218,0.0,0.0,79,0.00,,---,0.00,VWS V14.01,2013-01-14 05:23:00,
2013-01-13 23:28:00,6.9,1.5,30.81,SW,218,0.0,0.0,78,0.00,,---,0.00,VWS V14.01,2013-01-14 05:28:00,
2013-01-13 23:33:00,6.8,1.4,30.81,SW,218,0.0,1.0,78,0.00,,---,0.00,VWS V14.01,2013-01-14 05:33:00,
2013-01-13 23:38:00,6.7,1.3,30.81,SW,218,0.0,1.0,78,0.00,,---,0.00,VWS V14.01,2013-01-14 05:38:00,
2013-01-13 23:43:00,6.7,1.3,30.81,SW,218,0.0,0.0,78,0.00,,---,0.00,VWS V14.01,2013-01-14 05:43:00,
2013-01-13 23:48:00,6.9,1.8,30.81,SW,218,0.0,1.0,79,0.00,,---,0.00,VWS V14.01,2013-01-14 05:48:00,
2013-01-13 23:53:00,6.9,1.5,30.81,SW,218,0.0,1.0,78,0.00,,---,0.00,VWS V14.01,2013-01-14 05:53:00,
2013-01-13 23:58:00,7.0,1.9,30.81,SW,218,0.0,0.0,79,0.00,,---,0.00,VWS V14.01,2013-01-14 05:58:00,